[[{"header":{"parameterUnit":"m.s-1","parameterCategory":1,"la1":30.2991,"la2":30.254,"lo1":-89.0895,"lo2":-89.0444,"dy":0.0017,"dx":0.0017,"nx":28,"ny":28,"refTime":"2026-02-05T09:00:00:Z","depth":0,"parameterNumber":2,"parameterNumberName":"U-component_of_WINDS"},"data":[0,0,0,0,0,0,0,0,0,0,0,0,0,0,0,0,0,0,0,0,0,0,0,0,0,0,0,0,0,0,0,0,0,0,0,0,0,0,0,0,0,0,0,0,0,0,0,0,0,0,0,0,0,0,0,0,0,0,0.2651,0.2651,0,0.2633,0.2633,0.2633,0.2621,0.2621,0.262,0.262,0.2599,0.2599,0.2598,0,0,0,0,0,0,0,0,0,0,0,0,0,0.2673,0.2673,0.2651,0.2651,0.2651,0.2633,0.2633,0.2633,0.2621,0.2621,0.262,0.262,0.26,0.2599,0.2598,0,0,0,0,0,0,0,0,0,0,0,0,0,0.266,0.2673,0.2651,0.2643,0.2642,0.2633,0.2633,0.2633,0.2621,0.2621,0.262,0.262,0.26,0.2599,0.2598,0.2596,0,0,0.2596,0.2596,0,0,0,0,0,0,0,0,0.2661,0.266,0.2644,0.2643,0.2642,0.2629,0.2633,0.262,0.2621,0.2629,0.262,0.262,0.2609,0.2608,0.2604,0.2595,0.2594,0.2596,0.2596,0.2595,0.2595,0,0,0,0,0,0,0,0.2662,0.266,0.2644,0.2644,0.2643,0.2639,0.2637,0.2631,0.262,0.2628,0.2627,0.2625,0.2609,0.2605,0.2604,0.2594,0.2596,0.2595,0.2595,0.2595,0.2583,0.2583,0,0,0,0,0,0,0.2665,0.2661,0.2644,0.2643,0.2652,0.2639,0.2637,0.2633,0.262,0.2618,0.2625,0.2625,0.2607,0.2605,0.2603,0.26,0.2595,0.2595,0.2594,0.2583,0.2583,0.2583,0,0,0,0,0,0,0.2665,0.2663,0.2645,0.2652,0.2649,0.2639,0.2635,0.2633,0.263,0.2618,0.2616,0.2624,0.2606,0.2604,0.2598,0.2599,0.2594,0.2594,0.2583,0.2583,0.2583,0.2594,0,0,0,0,0,0,0.2666,0.2663,0.2663,0.2652,0.2649,0.2641,0.2635,0.2633,0.2629,0.2628,0.2616,0.2614,0.2606,0.26,0.2598,0.2598,0.2593,0.2583,0.2583,0.2583,0.2593,0.2595,0.2595,0,0,0,0,0,0.2667,0.2666,0.2663,0.2661,0.2648,0.2641,0.2639,0.2631,0.2629,0.2628,0.2621,0.2614,0.26,0.2599,0.2597,0.2597,0.2583,0.2583,0.2583,0.2593,0.2594,0.2595,0,0,0,0,0,0,0.2675,0.2664,0.2661,0.2656,0.265,0.2639,0.2638,0.2633,0.2626,0.2625,0.2615,0.2612,0.2608,0.2602,0.2601,0.2595,0.259,0.259,0.2599,0.26,0.2601,0.2602,0.2592,0,0,0,0,0,0.2677,0.2673,0.2663,0.266,0.2657,0.2648,0.2645,0.2639,0.2632,0.2629,0.2621,0.2614,0.2607,0.2603,0.2597,0.2593,0.259,0.2592,0.2593,0.2594,0.2594,0.2592,0.2593,0.2584,0.2584,0.2584,0,0,0.268,0.2673,0.2671,0.2662,0.2656,0.2652,0.2646,0.2641,0.2638,0.2628,0.2622,0.2617,0.2607,0.2603,0.26,0.2598,0.2596,0.2594,0.2595,0.2594,0.2592,0.2593,0.2594,0.2584,0.2584,0.2584,0,0,0.2683,0.2678,0.2675,0.267,0.2662,0.2656,0.2656,0.2646,0.2642,0.2637,0.263,0.2625,0.2615,0.2609,0.2605,0.2608,0.2601,0.2606,0.261,0.2609,0.2609,0.261,0.2611,0.2611,0.2606,0.2606,0.2606,0,0.2687,0.2681,0.2674,0.2671,0.2667,0.2659,0.2656,0.2652,0.2642,0.2639,0.2637,0.2624,0.2618,0.2612,0.2613,0.261,0.2609,0.2606,0.261,0.261,0.2611,0.2612,0.2612,0.2606,0.2606,0.2606,0.2606,0,0.2687,0.2683,0.2682,0.2674,0.267,0.2667,0.2659,0.2656,0.2651,0.2646,0.2641,0.2633,0.2625,0.2624,0.2618,0.2617,0.2616,0.2612,0.2607,0.2612,0.2613,0.2613,0.2607,0.2607,0.2607,0.2607,0,0,0.2694,0.2683,0.2683,0.268,0.2671,0.2668,0.2664,0.2658,0.2656,0.265,0.2646,0.2639,0.2635,0.263,0.2625,0.2623,0.2627,0.2619,0.2619,0.2621,0.2625,0.2628,0.2629,0.2623,0.2623,0.2623,0.2626,0,0.2695,0.269,0.2684,0.268,0.2676,0.267,0.2667,0.2662,0.2657,0.2653,0.2647,0.2642,0.2638,0.2635,0.2633,0.2627,0.2627,0.2626,0.262,0.2619,0.2622,0.2629,0.2632,0.2635,0.2626,0.2626,0.2626,0,0.2696,0.2692,0.2688,0.2681,0.2679,0.2677,0.2671,0.2667,0.2661,0.2658,0.2653,0.2648,0.2644,0.264,0.2635,0.2635,0.2632,0.2628,0.2628,0.2627,0.2623,0.2627,0.2635,0.2636,0.2627,0.2627,0.2627,0,0.2702,0.2695,0.2691,0.2689,0.2681,0.2679,0.2675,0.2669,0.2666,0.2661,0.2659,0.2653,0.265,0.2646,0.2639,0.2637,0.2634,0.263,0.2631,0.2631,0.263,0.263,0.2637,0.2629,0.2629,0.2629,0.2629,0,0.2704,0.2702,0.2694,0.2692,0.269,0.2683,0.2681,0.2677,0.2672,0.2668,0.2662,0.266,0.2651,0.2647,0.2642,0.2638,0.2637,0.2634,0.2632,0.2634,0.2634,0.2631,0.2631,0.2629,0.2629,0.2629,0.2629,0,0.2709,0.2704,0.27,0.2693,0.2691,0.269,0.2684,0.2682,0.2677,0.2673,0.2672,0.2665,0.266,0.2653,0.2646,0.2643,0.264,0.2638,0.2642,0.2641,0.2643,0.2643,0.2648,0.2648,0.264,0.264,0.264,0,0.271,0.2709,0.2702,0.27,0.2697,0.2694,0.2691,0.2685,0.2682,0.2676,0.2675,0.267,0.2666,0.2659,0.2652,0.2647,0.2645,0.2647,0.2644,0.2646,0.2644,0.2644,0.2644,0.2647,0.2647,0.2648,0.2648,0,0.2713,0.2711,0.2708,0.2704,0.2701,0.2698,0.2694,0.2692,0.2685,0.2683,0.2679,0.2676,0.2669,0.2664,0.2659,0.2655,0.265,0.2649,0.2649,0.265,0.2653,0.2651,0.2644,0.2649,0.2648,0.2648,0.2648,0.2648,0.2717,0.2715,0.2711,0.2707,0.2704,0.2701,0.2699,0.2695,0.2691,0.2686,0.2683,0.2679,0.2674,0.2666,0.2662,0.2659,0.2657,0.2657,0.2657,0.2656,0.2657,0.2654,0.2658,0.2658,0.2658,0.2658,0.2658,0,0.2719,0.2717,0.2714,0.2709,0.2707,0.2704,0.27,0.2697,0.2694,0.269,0.2687,0.2682,0.2678,0.2672,0.2668,0.2666,0.2664,0.2665,0.2665,0.2664,0.2659,0.266,0.2667,0.2667,0.2667,0.2667,0.2667,0.2667,0.2721,0.2718,0.2716,0.2712,0.2709,0.2706,0.2704,0.2701,0.2697,0.2693,0.269,0.2687,0.2682,0.2677,0.2673,0.2672,0.267,0.2672,0.2669,0.2665,0.2664,0.2663,0.2664,0.2672,0.2672,0.2674,0.2674,0.2674]},{"header":{"parameterUnit":"m.s-1","parameterCategory":1,"la1":30.2991,"la2":30.254,"lo1":-89.0895,"lo2":-89.0444,"dy":0.0017,"dx":0.0017,"nx":28,"ny":28,"refTime":"2026-02-05T09:00:00:Z","depth":0,"parameterNumber":3,"parameterNumberName":"V-component_of_WINDS"},"data":[0,0,0,0,0,0,0,0,0,0,0,0,0,0,0,0,0,0,0,0,0,0,0,0,0,0,0,0,0,0,0,0,0,0,0,0,0,0,0,0,0,0,0,0,0,0,0,0,0,0,0,0,0,0,0,0,0,0,-6.3533,-6.3534,0,-6.3633,-6.3634,-6.3635,-6.3583,-6.3581,-6.3578,-6.3575,-6.3677,-6.3682,-6.3687,0,0,0,0,0,0,0,0,0,0,0,0,0,-6.3298,-6.3302,-6.3533,-6.3534,-6.3535,-6.3633,-6.3634,-6.3635,-6.3584,-6.358,-6.3577,-6.3574,-6.3675,-6.3681,-6.3688,0,0,0,0,0,0,0,0,0,0,0,0,0,-6.3399,-6.3304,-6.3533,-6.3521,-6.3521,-6.3632,-6.3634,-6.3636,-6.3584,-6.358,-6.3576,-6.3573,-6.3673,-6.3681,-6.3688,-6.3816,0,0,-6.3712,-6.3715,0,0,0,0,0,0,0,0,-6.3393,-6.3408,-6.3522,-6.3522,-6.3522,-6.3591,-6.3588,-6.3696,-6.3585,-6.356,-6.3575,-6.3571,-6.3652,-6.3661,-6.3688,-6.3821,-6.3825,-6.3713,-6.3717,-6.3721,-6.3723,0,0,0,0,0,0,0,-6.3386,-6.3403,-6.3572,-6.3523,-6.3524,-6.3511,-6.3521,-6.3608,-6.3627,-6.3562,-6.3559,-6.3571,-6.3651,-6.3681,-6.369,-6.3827,-6.3713,-6.3719,-6.3724,-6.3727,-6.4071,-6.4075,0,0,0,0,0,0,-6.338,-6.3397,-6.3569,-6.3575,-6.3447,-6.3519,-6.353,-6.3573,-6.3626,-6.363,-6.3575,-6.3569,-6.367,-6.3681,-6.3694,-6.3848,-6.3721,-6.3728,-6.3733,-6.4066,-6.4072,-6.4077,0,0,0,0,0,0,-6.3375,-6.3396,-6.3565,-6.3486,-6.3506,-6.3527,-6.3576,-6.3577,-6.3607,-6.3635,-6.3638,-6.3602,-6.3667,-6.3683,-6.3787,-6.3851,-6.3732,-6.3739,-6.4061,-6.4068,-6.4074,-6.4158,0,0,0,0,0,0,-6.3368,-6.3394,-6.3443,-6.3487,-6.3511,-6.3656,-6.358,-6.3582,-6.3621,-6.3614,-6.3662,-6.3666,-6.3665,-6.3775,-6.3794,-6.386,-6.3745,-6.4055,-6.4064,-6.4072,-6.4149,-6.4166,-6.4181,0,0,0,0,0,-6.336,-6.3462,-6.3446,-6.3467,-6.3572,-6.366,-6.3674,-6.3671,-6.3626,-6.3676,-6.3694,-6.3664,-6.3841,-6.3786,-6.3807,-6.3876,-6.4051,-6.4062,-6.4071,-6.4142,-6.4163,-6.4181,0,0,0,0,0,0,-6.3424,-6.3467,-6.345,-6.3569,-6.3611,-6.3651,-6.3713,-6.3693,-6.3749,-6.374,-6.3734,-6.3745,-6.3854,-6.3875,-6.3813,-6.4003,-6.3939,-6.3954,-6.3986,-6.4006,-6.4021,-6.4015,-6.3751,0,0,0,0,0,-6.3452,-6.352,-6.3554,-6.3656,-6.3678,-6.3692,-6.3731,-6.3725,-6.3769,-6.3786,-6.3812,-6.3856,-6.3921,-6.3964,-6.4026,-6.4152,-6.4162,-6.4209,-6.4225,-6.4238,-6.4251,-6.4321,-6.4343,-6.411,-6.4109,-6.4109,0,0,-6.351,-6.3542,-6.3586,-6.3669,-6.3702,-6.3773,-6.3708,-6.3785,-6.3838,-6.3798,-6.3898,-6.3919,-6.3967,-6.4083,-6.4135,-6.4104,-6.4318,-6.4251,-6.4261,-6.4267,-6.4334,-6.4356,-6.4376,-6.4116,-6.4115,-6.4114,0,0,-6.3653,-6.3684,-6.3773,-6.3807,-6.3857,-6.3866,-6.3887,-6.3931,-6.3944,-6.4044,-6.4016,-6.4079,-6.4191,-6.4227,-6.426,-6.4419,-6.4394,-6.4439,-6.4522,-6.459,-6.4609,-6.4625,-6.4683,-6.4704,-6.4451,-6.4452,-6.4452,0,-6.3719,-6.3826,-6.3821,-6.3902,-6.394,-6.3907,-6.3998,-6.4031,-6.4099,-6.4126,-6.409,-6.4232,-6.4261,-6.4386,-6.4425,-6.4452,-6.4478,-6.4434,-6.4607,-6.4623,-6.4638,-6.4694,-6.4715,-6.4457,-6.4456,-6.4456,-6.4455,0,-6.3906,-6.398,-6.4046,-6.4113,-6.4158,-6.4244,-6.4252,-6.4299,-6.4289,-6.4302,-6.4406,-6.4441,-6.451,-6.4539,-6.453,-6.4663,-6.4642,-6.4607,-6.4542,-6.4666,-6.4718,-6.4739,-6.4464,-6.4462,-6.4461,-6.446,0,0,-6.4092,-6.4156,-6.4181,-6.4211,-6.4265,-6.4322,-6.4406,-6.4474,-6.4516,-6.4563,-6.4634,-6.4731,-6.4699,-6.4736,-6.4731,-6.4791,-6.4917,-6.4748,-6.4749,-6.478,-6.5068,-6.5096,-6.512,-6.49,-6.4904,-6.4908,-6.5065,0,-6.424,-6.4388,-6.4386,-6.4523,-6.4593,-6.4563,-6.4636,-6.4678,-6.4692,-6.4753,-6.4769,-6.4838,-6.4789,-6.4812,-6.487,-6.4889,-6.4975,-6.4878,-6.4968,-6.4971,-6.4958,-6.5147,-6.5177,-6.5323,-6.5085,-6.5088,-6.5091,0,-6.4432,-6.4488,-6.4632,-6.4677,-6.4706,-6.4772,-6.4836,-6.4894,-6.494,-6.4947,-6.499,-6.4976,-6.5062,-6.4995,-6.5114,-6.5048,-6.5084,-6.51,-6.5105,-6.5115,-6.5039,-6.5164,-6.537,-6.5392,-6.5122,-6.512,-6.5117,0,-6.4556,-6.4667,-6.4768,-6.4795,-6.4849,-6.4897,-6.4922,-6.4964,-6.5006,-6.5061,-6.5088,-6.5152,-6.5187,-6.5238,-6.5242,-6.5192,-6.5363,-6.5295,-6.5372,-6.5372,-6.541,-6.5408,-6.5627,-6.5431,-6.5431,-6.543,-6.543,0,-6.4723,-6.4812,-6.4824,-6.4887,-6.4987,-6.4984,-6.5084,-6.5104,-6.5142,-6.5209,-6.5186,-6.5249,-6.525,-6.5314,-6.5317,-6.5417,-6.5432,-6.5441,-6.5441,-6.5444,-6.5443,-6.5469,-6.5459,-6.5436,-6.5435,-6.5434,-6.5433,0,-6.4878,-6.4889,-6.4998,-6.5041,-6.5054,-6.5126,-6.5163,-6.5223,-6.5236,-6.532,-6.534,-6.536,-6.5434,-6.5443,-6.5529,-6.5532,-6.5652,-6.5641,-6.5637,-6.5636,-6.5713,-6.5706,-6.5957,-6.5991,-6.5771,-6.5774,-6.5775,0,-6.4984,-6.5053,-6.5104,-6.5147,-6.5175,-6.5244,-6.5287,-6.5288,-6.5333,-6.5392,-6.5445,-6.5517,-6.5575,-6.5696,-6.5718,-6.5785,-6.5776,-6.5859,-6.5786,-6.5787,-6.5779,-6.5776,-6.5784,-6.5874,-6.5876,-6.5878,-6.588,0,-6.5173,-6.5175,-6.5238,-6.5304,-6.5355,-6.5407,-6.5455,-6.5491,-6.5498,-6.555,-6.5626,-6.5672,-6.5761,-6.5834,-6.5899,-6.5925,-6.5905,-6.5903,-6.5924,-6.5929,-6.5925,-6.593,-6.5678,-6.5897,-6.5895,-6.5894,-6.5893,-6.5892,-6.5308,-6.5369,-6.5415,-6.5486,-6.5522,-6.5568,-6.5627,-6.5647,-6.5711,-6.5784,-6.578,-6.5865,-6.5911,-6.5997,-6.6028,-6.6095,-6.6067,-6.6098,-6.6106,-6.6114,-6.6123,-6.5913,-6.6106,-6.6106,-6.6105,-6.6105,-6.6104,0,-6.5497,-6.5525,-6.559,-6.5659,-6.5716,-6.5691,-6.5744,-6.5792,-6.5867,-6.5912,-6.597,-6.6059,-6.6129,-6.6158,-6.6227,-6.6275,-6.6268,-6.6294,-6.6291,-6.6298,-6.6142,-6.6118,-6.6299,-6.6299,-6.6299,-6.6299,-6.6299,-6.6299,-6.5602,-6.5703,-6.5712,-6.5832,-6.5859,-6.5942,-6.5975,-6.6017,-6.6053,-6.6154,-6.6213,-6.6231,-6.6269,-6.6342,-6.6406,-6.6412,-6.644,-6.647,-6.6473,-6.6328,-6.6308,-6.629,-6.6267,-6.6476,-6.6476,-6.6623,-6.6624,-6.6626]}]]